Change the Weather History Date:

Saturday, September 28, 2013

  Actual Average Record
Temperature  
Mean Temperature 67 °F -  
Max Temperature 80 °F 68 °F 88 °F (1952)
Min Temperature 53 °F 45 °F 26 °F (1942)
Cooling Degree Days 2    
Growing Degree Days 17 (Base 50)    
Moisture  
Dew Point 56 °F    
Average Humidity 74    
Maximum Humidity 97    
Minimum Humidity 47    
Precipitation  
Precipitation 0.50 in - - ()
Sea Level Pressure  
Sea Level Pressure 29.96 in    
Wind  
Wind Speed 9 mph (South)    
Max Wind Speed 22 mph    
Max Gust Speed 31 mph    
Visibility 9 miles    
Events Rain    
Averages and records for this station are not official NWS values.
T = Trace of Precipitation, MM = Missing Value Source: NWS Daily Summary

Daily Weather History Graph

Daily Weather History Graph

Search for Another Location

Airport or City:

Trip Planner

Search our weather history database for the weather conditions in past years. The results will help you decide how hot, cold, wet, or windy it might be!

Date:

Astronomy

Sep. 28, 2013 Rise Set
Actual Time 6:49 AM CDT 6:40 PM CDT
Civil Twilight 6:20 AM CDT 7:09 PM CDT
Nautical Twilight 5:47 AM CDT 7:42 PM CDT
Astronomical Twilight 5:14 AM CDT 8:15 PM CDT
Moon 12:28 AM CDT (9/28) 3:07 PM CDT (9/28)
Length of Visible Light 12h 48m
Length of Day
11h 51m
Waning Crescent, 36% of the Moon is Illuminated
Sep 28
Waning Crescent
Oct 4
New
Oct 11
First Quarter
Oct 18
Full
Oct 26
Last Quarter

Hourly Weather History & Observations

Time (CDT) Temp. Heat Index Dew Point Humidity Pressure Visibility Wind Dir Wind Speed Gust Speed Precip Events Conditions
12:15 AM 57.2 °F - 50.4 °F 78% 30.06 in 10.0 mi ESE 6.9 mph - N/A   Clear
12:55 AM 58.1 °F - 50.9 °F 77% 30.05 in 10.0 mi ESE 5.8 mph - N/A   Clear
1:15 AM 57.9 °F - 50.7 °F 77% 30.05 in 10.0 mi SE 4.6 mph - N/A   Clear
1:35 AM 57.9 °F - 50.2 °F 75% 30.05 in 10.0 mi SE 3.5 mph - N/A   Clear
1:55 AM 58.3 °F - 49.8 °F 73% 30.05 in 10.0 mi SSE 5.8 mph - N/A   Clear
2:15 AM 59.0 °F - 50.4 °F 73% 30.05 in 10.0 mi SSE 6.9 mph - N/A   Clear
2:35 AM 58.5 °F - 50.4 °F 74% 30.05 in 10.0 mi SE 6.9 mph - N/A   Clear
2:55 AM 58.6 °F - 50.4 °F 74% 30.04 in 10.0 mi SE 8.1 mph - N/A   Clear
3:15 AM 58.5 °F - 50.4 °F 74% 30.04 in 10.0 mi SE 8.1 mph - N/A   Clear
3:35 AM 58.6 °F - 50.9 °F 75% 30.04 in 10.0 mi SE 9.2 mph - N/A   Clear
3:55 AM 58.1 °F - 50.9 °F 77% 30.03 in 10.0 mi SE 6.9 mph - N/A   Clear
4:35 AM 56.3 °F - 51.8 °F 85% 30.03 in 7.0 mi SE 6.9 mph - N/A   Clear
4:55 AM 55.8 °F - 51.8 °F 87% 30.03 in 10.0 mi SE 5.8 mph - N/A   Clear
5:15 AM 55.6 °F - 51.4 °F 86% 30.03 in 10.0 mi ESE 5.8 mph - N/A   Clear
5:55 AM 54.5 °F - 50.7 °F 87% 30.04 in 10.0 mi Calm Calm - N/A   Clear
6:15 AM 54.5 °F - 50.7 °F 87% 30.04 in 10.0 mi SE 3.5 mph - N/A   Clear
6:35 AM 54.7 °F - 50.7 °F 86% 30.04 in 10.0 mi SE 4.6 mph - N/A   Clear
6:55 AM 54.7 °F - 50.5 °F 86% 30.05 in 10.0 mi Calm Calm - N/A   Clear
7:35 AM 55.9 °F - 51.3 °F 84% 30.04 in 10.0 mi SE 5.8 mph - N/A   Clear
7:55 AM 57.7 °F - 51.8 °F 81% 30.03 in 10.0 mi SE 6.9 mph - N/A   Clear
8:15 AM 59.9 °F - 52.3 °F 76% 30.03 in 10.0 mi SSE 9.2 mph - N/A   Clear
8:35 AM 61.5 °F - 52.5 °F 72% 30.03 in 10.0 mi SSE 11.5 mph - N/A   Clear
8:55 AM 62.8 °F - 53.1 °F 71% 30.03 in 10.0 mi SSE 10.4 mph - N/A   Clear
9:15 AM 65.1 °F - 54.0 °F 67% 30.03 in 10.0 mi SSE 9.2 mph - N/A   Clear
9:35 AM 67.5 °F - 54.7 °F 64% 30.02 in 10.0 mi SSE 9.2 mph - N/A   Clear
9:55 AM 68.5 °F - 54.9 °F 62% 30.01 in 10.0 mi SSE 12.7 mph 18.4 mph N/A   Clear
10:35 AM 71.2 °F - 56.1 °F 59% 30.00 in 10.0 mi SSE 13.8 mph 23.0 mph N/A   Scattered Clouds
10:55 AM 72.5 °F - 55.8 °F 56% 29.99 in 10.0 mi South 12.7 mph 23.0 mph N/A   Clear
11:15 AM 72.5 °F - 54.9 °F 54% 29.98 in 10.0 mi SSE 15.0 mph 23.0 mph N/A   Clear
11:55 AM 74.1 °F - 56.7 °F 54% 29.96 in 10.0 mi South 11.5 mph 21.9 mph N/A   Clear
12:15 PM 75.9 °F - 57.4 °F 52% 29.94 in 10.0 mi SSE 11.5 mph 17.3 mph N/A   Clear
12:52 PM 78.8 °F - 57.2 °F 47% 29.92 in 10.0 mi South 17.3 mph 23.0 mph N/A   Clear
12:55 PM 77.5 °F - 57.9 °F 51% 29.91 in 10.0 mi South 17.3 mph 23.0 mph N/A   Clear
1:15 PM 78.1 °F - 58.5 °F 51% 29.90 in 10.0 mi South 13.8 mph 26.5 mph N/A   Scattered Clouds
1:35 PM 79.2 °F - 58.5 °F 49% 29.89 in 10.0 mi South 15.0 mph 28.8 mph N/A   Scattered Clouds
1:55 PM 80.2 °F 80.7 °F 58.5 °F 47% 29.88 in 10.0 mi South 21.9 mph 31.1 mph N/A   Scattered Clouds
2:15 PM 78.4 °F - 58.5 °F 50% 29.88 in 10.0 mi South 15.0 mph 27.6 mph N/A   Scattered Clouds
2:35 PM 79.7 °F - 58.6 °F 48% 29.87 in 10.0 mi South 16.1 mph 27.6 mph N/A   Mostly Cloudy
3:15 PM 80.2 °F 80.8 °F 59.0 °F 48% 29.86 in 10.0 mi South 21.9 mph 26.5 mph N/A   Scattered Clouds
3:35 PM 79.9 °F - 58.5 °F 48% 29.84 in 10.0 mi South 18.4 mph 28.8 mph N/A   Clear
4:15 PM 78.3 °F - 57.7 °F 49% 29.84 in 10.0 mi South 17.3 mph 27.6 mph N/A   Mostly Cloudy
4:35 PM 77.7 °F - 57.9 °F 50% 29.84 in 10.0 mi South 13.8 mph 25.3 mph N/A   Overcast
4:55 PM 77.2 °F - 58.1 °F 52% 29.83 in 10.0 mi South 9.2 mph 18.4 mph N/A   Overcast
5:35 PM 77.0 °F - 58.6 °F 53% 29.84 in 10.0 mi SSW 11.5 mph 23.0 mph N/A   Overcast
6:15 PM 72.9 °F - 62.1 °F 69% 29.86 in 10.0 mi SW 16.1 mph 24.2 mph N/A   Light Drizzle
6:35 PM 72.5 °F - 62.6 °F 71% 29.86 in 10.0 mi SW 18.4 mph 25.3 mph N/A   Overcast
6:55 PM 70.2 °F - 64.2 °F 81% 29.87 in 7.0 mi SW 16.1 mph 28.8 mph N/A   Overcast
7:15 PM 67.3 °F - 65.5 °F 94% 29.87 in 4.0 mi SSW 13.8 mph 23.0 mph 0.01 in Rain Light Rain
7:35 PM 67.1 °F - 65.8 °F 96% 29.87 in 4.0 mi SSW 11.5 mph - 0.04 in Rain Light Rain
7:55 PM 67.1 °F - 65.8 °F 96% 29.87 in 10.0 mi SSW 10.4 mph 19.6 mph 0.04 in   Overcast
8:15 PM 67.5 °F - 66.2 °F 96% 29.87 in 10.0 mi SSW 10.4 mph 16.1 mph N/A   Overcast
8:35 PM 63.5 °F - 61.2 °F 92% 29.89 in 4.0 mi WNW 10.4 mph 21.9 mph 0.05 in Rain Light Rain
8:55 PM 61.3 °F - 60.1 °F 96% 29.90 in 5.0 mi NW 12.7 mph 18.4 mph 0.08 in   Drizzle
9:15 PM 60.6 °F - 59.4 °F 96% 29.91 in 4.0 mi WNW 9.2 mph - 0.07 in Rain Rain
9:35 PM 59.7 °F - 58.6 °F 96% 29.92 in 5.0 mi WNW 9.2 mph - 0.16 in Rain Rain
9:55 PM 57.9 °F - 56.7 °F 96% 29.93 in 7.0 mi WNW 15.0 mph 23.0 mph 0.22 in Rain Rain
10:15 PM 57.2 °F - 56.3 °F 97% 29.94 in 7.0 mi WNW 10.4 mph - 0.01 in Rain Rain
10:35 PM 55.4 °F - 54.3 °F 96% 29.95 in 5.0 mi NNW 9.2 mph 17.3 mph 0.11 in Rain Light Rain
10:55 PM 54.1 °F - 52.9 °F 95% 29.96 in 10.0 mi North 5.8 mph - 0.15 in Rain Rain
11:15 PM 54.3 °F - 52.5 °F 94% 29.96 in 10.0 mi Calm Calm - 0.01 in Rain Light Rain
11:35 PM 54.0 °F - 52.7 °F 95% 29.96 in 10.0 mi Calm Calm - 0.01 in   Overcast
11:55 PM 53.6 °F - 52.5 °F 96% 29.96 in 10.0 mi Calm Calm - 0.01 in   Mostly Cloudy